When you browse on this site, cookies collect data to enhance your experience and personalize the content and advertising you see.
Visit our Privacy Policy to learn more. By continuing to use the site, you agree to this use of cookies and data.
  • In Austria
  • List of Countries
  • For 7 days
  • Water Temperature
  • Weather Map
  • News
  • Weather Widgets
  • user-avatar
    Login

    Hourly Weather Barnaul

    Today, 2 April, Thursday

    Time Temperature Precipitation Wind Pressure Humidity
    00:00 0°C° 0 mm 1 mps 744 mmHg 88%
    01:00 0°C° 0 mm 1 mps 744 mmHg 88%
    02:00 -2°C° 0 mm 2 mps 744 mmHg 88%
    03:00 -2°C° 0 mm 2 mps 743 mmHg 89%
    04:00 -2°C° 0 mm 2 mps 743 mmHg 89%
    05:00 -2°C° 0 mm 2 mps 743 mmHg 89%
    06:00 -2°C° 0 mm 3 mps 743 mmHg 90%
    07:00 0°C° 0 mm 3 mps 743 mmHg 87%
    08:00 +1°C° 0 mm 3 mps 743 mmHg 85%
    09:00 +2°C° 0 mm 3 mps 743 mmHg 82%
    10:00 +4°C° 0 mm 3 mps 743 mmHg 78%
    11:00 +7°C° 0 mm 3 mps 743 mmHg 74%
    12:00 +8°C° 0 mm 3 mps 743 mmHg 69%
    13:00 +8°C° 0 mm 5 mps 743 mmHg 63%
    14:00 +9°C° 0 mm 6 mps 743 mmHg 57%
    15:00 +10°C° 0 mm 8 mps 743 mmHg 51%
    16:00 +7°C° 0 mm 8 mps 743 mmHg 55%
    17:00 +6°C° 0 mm 8 mps 743 mmHg 60%
    18:00 +5°C° 0 mm 7 mps 743 mmHg 65%
    19:00 +5°C° 0.2 mm 7 mps 744 mmHg 71%
    20:00 +4°C° 0.2 mm 7 mps 744 mmHg 76%
    21:00 +4°C° 0.2 mm 7 mps 744 mmHg 82%
    22:00 +4°C° 0.1 mm 7 mps 745 mmHg 83%
    23:00 +4°C° 0.1 mm 7 mps 745 mmHg 83%

    Tomorrow, 3 April, Friday

    Time Temperature Precipitation Wind Pressure Humidity
    00:00 +3°C° 0.1 mm 6 mps 745 mmHg 84%
    01:00 +3°C° 0.1 mm 6 mps 745 mmHg 85%
    02:00 +3°C° 0.1 mm 6 mps 745 mmHg 86%
    03:00 +2°C° 0.1 mm 5 mps 745 mmHg 87%
    04:00 +2°C° 0 mm 5 mps 746 mmHg 87%
    05:00 +2°C° 0 mm 5 mps 747 mmHg 88%
    06:00 +1°C° 0 mm 5 mps 747 mmHg 88%
    07:00 +2°C° 0 mm 5 mps 748 mmHg 88%
    08:00 +2°C° 0 mm 5 mps 748 mmHg 87%
    09:00 +3°C° 0 mm 5 mps 748 mmHg 86%
    10:00 +4°C° 0 mm 4 mps 749 mmHg 87%
    11:00 +4°C° 0 mm 4 mps 750 mmHg 89%
    12:00 +4°C° 0 mm 3 mps 750 mmHg 90%
    13:00 +4°C° 0 mm 3 mps 750 mmHg 88%
    14:00 +5°C° 0 mm 3 mps 751 mmHg 86%
    15:00 +5°C° 0 mm 3 mps 751 mmHg 85%
    16:00 +4°C° 0 mm 3 mps 751 mmHg 85%
    17:00 +5°C° 0 mm 2 mps 751 mmHg 86%
    18:00 +4°C° 0 mm 2 mps 752 mmHg 86%
    19:00 +3°C° 0 mm 2 mps 752 mmHg 88%
    20:00 +2°C° 0 mm 2 mps 753 mmHg 90%
    21:00 +1°C° 0 mm 2 mps 753 mmHg 92%
    22:00 -1°C° 0 mm 2 mps 753 mmHg 92%
    23:00 -1°C° 0 mm 2 mps 753 mmHg 92%

    Day after tomorrow, 4 April, Saturday

    Time Temperature Precipitation Wind Pressure Humidity
    00:00 -1°C° 0 mm 2 mps 754 mmHg 93%
    01:00 -2°C° 0 mm 2 mps 754 mmHg 90%
    02:00 -2°C° 0 mm 2 mps 753 mmHg 87%
    03:00 -2°C° 0 mm 2 mps 753 mmHg 84%
    04:00 -2°C° 0 mm 2 mps 754 mmHg 83%
    05:00 -2°C° 0 mm 2 mps 754 mmHg 82%
    06:00 -2°C° 0 mm 2 mps 754 mmHg 81%
    07:00 -1°C° 0 mm 2 mps 754 mmHg 77%
    08:00 0°C° 0 mm 3 mps 754 mmHg 73%
    09:00 +1°C° 0 mm 3 mps 754 mmHg 69%
    10:00 +3°C° 0 mm 3 mps 754 mmHg 65%
    11:00 +4°C° 0 mm 3 mps 754 mmHg 61%
    12:00 +5°C° 0 mm 3 mps 754 mmHg 58%
    13:00 +5°C° 0 mm 3 mps 753 mmHg 57%
    14:00 +6°C° 0 mm 4 mps 753 mmHg 56%
    15:00 +6°C° 0 mm 4 mps 753 mmHg 56%
    16:00 +7°C° 0 mm 3 mps 752 mmHg 58%
    17:00 +5°C° 0 mm 3 mps 752 mmHg 60%
    18:00 +5°C° 0 mm 3 mps 752 mmHg 62%
    19:00 +3°C° 0 mm 3 mps 752 mmHg 68%
    20:00 +2°C° 0 mm 3 mps 752 mmHg 73%
    21:00 +1°C° 0 mm 3 mps 752 mmHg 79%
    22:00 +1°C° 0 mm 3 mps 751 mmHg 80%
    23:00 0°C° 0 mm 3 mps 751 mmHg 81%

    5 April, Sunday

    Time Temperature Precipitation Wind Pressure Humidity
    00:00 -1°C° 0 mm 3 mps 751 mmHg 82%
    01:00 -1°C° 0 mm 3 mps 750 mmHg 83%
    02:00 -1°C° 0 mm 3 mps 750 mmHg 84%
    03:00 -1°C° 0 mm 3 mps 749 mmHg 85%
    04:00 -1°C° 0 mm 2 mps 749 mmHg 85%
    05:00 -2°C° 0 mm 2 mps 749 mmHg 84%
    06:00 -2°C° 0 mm 2 mps 749 mmHg 84%
    07:00 +1°C° 0 mm 2 mps 749 mmHg 77%
    08:00 +2°C° 0 mm 3 mps 748 mmHg 71%
    09:00 +3°C° 0 mm 3 mps 748 mmHg 65%
    10:00 +5°C° 0 mm 3 mps 748 mmHg 63%
    11:00 +8°C° 0 mm 3 mps 748 mmHg 61%
    12:00 +8°C° 0 mm 4 mps 747 mmHg 59%
    13:00 +10°C° 0 mm 4 mps 747 mmHg 58%
    14:00 +11°C° 0 mm 4 mps 747 mmHg 57%
    15:00 +12°C° 0 mm 4 mps 746 mmHg 55%
    16:00 +11°C° 0 mm 4 mps 746 mmHg 58%
    17:00 +11°C° 0 mm 4 mps 746 mmHg 60%
    18:00 +10°C° 0 mm 4 mps 745 mmHg 62%
    19:00 +9°C° 0 mm 3 mps 745 mmHg 68%
    20:00 +8°C° 0 mm 3 mps 745 mmHg 74%
    21:00 +5°C° 0 mm 3 mps 744 mmHg 80%
    22:00 +5°C° 0 mm 3 mps 744 mmHg 80%
    23:00 +5°C° 0 mm 2 mps 744 mmHg 80%

    6 April, Monday

    Time Temperature Precipitation Wind Pressure Humidity
    00:00 +4°C° 0 mm 2 mps 744 mmHg 80%
    01:00 +4°C° 0 mm 2 mps 743 mmHg 79%
    02:00 +3°C° 0 mm 2 mps 743 mmHg 79%
    03:00 +3°C° 0 mm 2 mps 742 mmHg 78%
    04:00 +2°C° 0 mm 2 mps 742 mmHg 80%
    05:00 +2°C° 0 mm 2 mps 742 mmHg 82%
    06:00 +3°C° 0 mm 1 mps 742 mmHg 84%
    07:00 +4°C° 0 mm 1 mps 742 mmHg 80%
    08:00 +6°C° 0 mm 1 mps 742 mmHg 77%
    09:00 +7°C° 0 mm 1 mps 742 mmHg 74%
    10:00 +9°C° 0 mm 1 mps 742 mmHg 68%
    11:00 +10°C° 0 mm 2 mps 742 mmHg 63%
    12:00 +12°C° 0 mm 2 mps 742 mmHg 57%
    13:00 +14°C° 0 mm 2 mps 742 mmHg 53%
    14:00 +15°C° 0 mm 2 mps 742 mmHg 49%
    15:00 +16°C° 0 mm 2 mps 742 mmHg 45%
    16:00 +15°C° 0 mm 2 mps 742 mmHg 48%
    17:00 +14°C° 0 mm 1 mps 742 mmHg 52%
    18:00 +14°C° 0 mm 1 mps 742 mmHg 55%
    19:00 +13°C° 0 mm 1 mps 743 mmHg 57%
    20:00 +12°C° 0 mm 1 mps 743 mmHg 59%
    21:00 +11°C° 0 mm 1 mps 743 mmHg 62%
    22:00 +11°C° 0 mm 1 mps 743 mmHg 62%
    23:00 +11°C° 0 mm 1 mps 743 mmHg 63%

    7 April, Tuesday

    Time Temperature Precipitation Wind Pressure Humidity
    00:00 +10°C° 0 mm 1 mps 743 mmHg 64%
    01:00 +9°C° 0 mm 2 mps 743 mmHg 66%
    02:00 +9°C° 0 mm 2 mps 743 mmHg 69%
    03:00 +9°C° 0 mm 2 mps 743 mmHg 71%
    04:00 +8°C° 0 mm 2 mps 744 mmHg 74%
    05:00 +8°C° 0 mm 2 mps 744 mmHg 78%
    06:00 +7°C° 0 mm 2 mps 745 mmHg 81%
    07:00 +8°C° 0 mm 2 mps 745 mmHg 78%
    08:00 +10°C° 0 mm 2 mps 745 mmHg 74%
    09:00 +12°C° 0 mm 2 mps 745 mmHg 71%
    10:00 +12°C° 0 mm 3 mps 745 mmHg 66%
    11:00 +14°C° 0 mm 3 mps 745 mmHg 60%
    12:00 +16°C° 0 mm 3 mps 745 mmHg 55%
    13:00 +17°C° 0 mm 3 mps 745 mmHg 52%
    14:00 +17°C° 0 mm 3 mps 745 mmHg 49%
    15:00 +18°C° 0 mm 3 mps 745 mmHg 46%
    16:00 +18°C° 0 mm 2 mps 744 mmHg 48%
    17:00 +17°C° 0 mm 2 mps 744 mmHg 50%
    18:00 +18°C° 0 mm 1 mps 744 mmHg 51%
    19:00 +15°C° 0 mm 2 mps 744 mmHg 58%
    20:00 +13°C° 0 mm 3 mps 744 mmHg 64%
    21:00 +11°C° 0 mm 3 mps 743 mmHg 70%
    22:00 +11°C° 0 mm 3 mps 743 mmHg 73%
    23:00 +10°C° 0 mm 3 mps 743 mmHg 77%
    Show more